Theta_e
298 299 299 299 299 299 299 299 298 297 298 300 301 304 307 310 311 311 309 308 307 308 308 309 309 309 309 310 310 311 311 312 312 311 311 313 312 311 310 309 310 310 310 310 310 310 310 310 310 311 310 309 309 308 307 306 306 307 306 305 306 308 309 311 313 314 312 309 310 311 310 311 311 312 312 312 312 311 311 313 314 314 313 312 314 315 315
297 298 299 299 298 298 299 299 298 297 298 299 300 304 307 308 310 310 309 308 308 309 309 310 311 311 311 311 311 311 312 312 312 312 313 313 313 311 310 309 310 310 310 310 310 310 311 311 311 311 311 310 309 308 307 306 306 306 306 306 307 309 310 311 314 316 315 311 311 312 311 311 311 312 312 312 312 312 313 312 313 316 314 313 315 314 313
297 297 298 299 298 298 299 299 298 298 298 298 300 304 306 308 310 311 310 308 308 309 310 310 311 311 311 312 311 312 313 313 313 313 313 313 314 312 310 309 309 309 309 309 310 310 311 312 312 312 311 310 309 308 307 306 306 306 307 309 309 310 311 313 315 316 315 312 312 312 311 311 311 311 311 312 312 312 313 312 313 315 314 313 313 313 315
298 297 298 298 297 298 299 299 299 298 298 299 300 304 306 309 310 310 310 309 309 309 309 310 310 311 311 311 312 313 314 313 312 313 313 313 315 312 309 307 307 307 308 309 310 310 311 311 312 313 312 310 308 308 307 306 306 308 310 310 310 311 313 314 316 317 315 311 311 311 311 311 311 311 311 311 312 313 313 312 312 313 314 312 313 315 318
299 298 298 298 297 297 298 299 299 299 299 300 301 304 307 309 310 309 309 309 309 310 310 311 312 312 312 312 312 313 313 313 313 313 313 314 315 313 311 308 307 308 309 310 310 311 312 312 312 312 312 310 309 308 306 306 308 311 311 311 311 312 313 314 315 316 315 312 312 311 311 311 310 310 310 311 312 313 314 314 314 314 314 313 315 319 320
300 299 299 298 298 297 298 299 299 299 300 301 302 305 307 308 308 307 308 308 309 309 309 310 310 310 312 313 313 313 314 313 313 313 312 313 315 315 314 312 310 309 309 310 310 312 315 315 314 314 313 311 310 308 306 306 309 310 309 309 312 312 313 314 313 313 314 313 313 313 311 311 311 310 311 312 312 313 314 315 316 317 315 314 316 323 323
300 299 299 299 299 297 298 299 299 299 301 302 304 306 304 305 306 306 306 306 306 307 307 308 309 310 312 314 314 315 314 313 313 312 313 314 314 315 316 315 313 310 308 308 310 312 314 316 316 316 315 313 310 308 307 307 307 309 308 309 313 314 314 315 314 314 314 312 314 314 312 311 311 311 312 312 312 313 313 315 316 316 316 317 320 325 326
300 299 299 299 298 298 297 299 299 299 301 303 305 305 303 303 304 304 304 304 305 306 308 309 311 311 312 314 314 313 313 313 312 311 313 315 314 316 318 318 316 312 308 307 310 313 314 314 316 317 317 317 313 309 308 308 307 308 309 310 314 315 315 316 317 316 316 314 314 314 313 312 311 311 312 312 312 313 314 316 317 316 316 318 321 323 323
299 299 299 298 298 297 297 299 299 299 300 303 304 304 303 302 303 302 302 303 305 306 308 309 310 311 311 312 312 312 312 312 312 311 312 313 314 315 317 318 318 315 309 307 310 313 312 312 314 315 317 317 315 311 309 308 308 308 308 311 313 313 314 317 318 317 316 316 315 314 313 313 312 312 312 312 313 314 315 316 318 318 317 319 320 319 319
299 300 299 298 298 297 297 299 299 298 300 302 302 303 303 302 302 301 302 303 305 306 307 309 309 310 310 311 311 311 311 309 310 312 313 312 312 314 317 317 317 316 312 312 313 312 311 312 313 314 315 316 315 314 313 310 309 309 310 312 313 313 314 317 317 316 317 319 318 316 316 316 314 313 314 313 313 315 315 315 317 318 318 318 318 317 319
299 299 299 298 298 296 297 299 299 299 299 301 301 302 302 301 301 301 301 303 304 305 306 308 308 309 310 310 309 309 309 308 310 313 313 311 312 313 316 317 316 316 317 317 315 314 313 314 315 315 316 315 315 315 315 312 310 310 311 312 314 316 317 317 317 316 317 320 319 318 319 318 316 315 314 314 314 315 316 316 317 318 317 318 318 319 322
299 299 299 299 298 297 297 298 299 299 299 300 301 302 302 301 300 301 301 302 303 304 305 307 308 309 310 309 308 308 308 309 311 312 311 311 312 313 313 314 314 315 315 316 317 317 317 318 317 316 316 315 315 315 314 313 309 309 311 312 315 319 319 316 316 316 318 320 321 321 321 320 317 317 316 315 314 315 317 317 318 318 317 318 319 319 321
299 299 299 299 298 297 297 298 299 299 299 299 301 301 301 301 301 301 301 301 302 303 304 305 307 308 308 308 307 308 309 310 311 310 310 311 312 313 313 312 312 313 313 314 317 318 318 319 318 317 316 315 315 315 314 313 311 310 310 310 316 321 320 317 317 317 319 320 321 322 323 321 320 321 320 317 316 316 317 317 318 319 319 318 318 318 318
299 299 299 298 298 297 297 298 299 299 299 299 300 301 301 302 301 300 300 301 302 302 303 304 305 306 307 307 307 308 309 309 309 308 308 310 312 312 312 311 311 313 314 315 318 318 318 318 318 318 317 316 317 317 316 313 312 312 311 310 315 319 318 317 318 318 319 320 321 322 322 322 322 321 320 320 318 317 319 318 317 319 319 317 318 317 318
299 299 299 298 298 297 297 298 298 299 299 299 300 301 301 301 301 300 300 301 301 302 303 304 304 305 305 307 307 306 307 307 306 306 308 310 311 312 311 309 311 314 314 315 318 319 318 318 318 317 317 317 318 317 314 313 313 313 312 311 313 316 316 317 318 318 319 320 322 323 322 322 323 324 324 326 323 321 322 319 317 319 319 318 319 318 318
299 298 298 298 298 297 297 297 298 298 299 299 300 301 301 301 301 300 301 301 301 302 303 303 303 304 305 306 306 305 305 305 305 306 308 309 310 311 310 309 312 315 315 316 319 319 318 318 318 317 316 315 315 314 313 313 313 313 313 313 314 314 315 316 316 317 318 320 322 323 322 322 324 325 326 325 323 323 323 317 315 319 319 317 317 319 320
298 298 298 298 297 296 296 297 297 298 298 299 300 300 301 301 301 301 301 301 300 302 302 302 303 304 304 305 305 304 305 305 305 306 307 308 310 310 309 309 312 313 314 317 319 318 317 317 319 318 317 314 312 313 313 313 313 313 313 313 314 315 316 316 317 317 318 319 321 322 322 321 323 325 325 323 322 323 322 317 318 323 326 323 319 318 320
297 297 297 297 297 296 296 297 298 298 298 299 299 300 301 301 302 301 301 301 300 301 302 302 303 303 303 304 304 304 305 305 305 306 306 308 310 309 308 310 312 312 313 317 318 317 317 318 320 320 319 316 312 312 312 312 313 313 313 312 314 315 316 316 317 317 318 319 320 321 321 320 322 324 325 325 323 321 320 320 324 329 331 327 325 324 321
298 297 297 297 297 296 296 297 298 298 298 298 299 300 301 301 301 301 301 301 300 301 302 302 302 302 303 304 304 304 304 304 304 305 306 309 309 308 308 310 312 312 312 315 317 316 317 319 320 320 320 319 318 318 316 313 313 313 313 313 314 316 317 316 317 317 318 319 320 321 321 321 322 324 325 326 324 321 322 326 329 330 329 327 327 328 328
298 297 297 297 296 296 297 297 298 298 298 298 299 300 300 300 301 302 301 301 301 301 301 302 302 303 303 303 303 303 303 303 304 304 306 307 307 307 309 310 311 311 312 315 316 316 317 318 319 319 320 320 320 320 319 318 316 313 314 314 314 316 317 317 317 318 318 318 320 322 322 323 324 325 324 325 326 325 327 331 330 328 328 327 326 328 332
298 298 297 296 296 297 297 297 297 298 298 298 299 299 300 300 301 302 302 301 301 301 301 302 302 303 302 302 303 303 303 303 303 304 305 305 306 308 309 309 310 311 313 314 315 315 315 316 317 319 320 320 320 320 320 320 319 315 314 315 315 316 317 316 317 318 319 319 320 321 321 322 325 326 325 326 328 329 330 330 328 328 328 327 326 329 334
298 297 297 296 296 297 297 297 297 297 297 298 299 299 300 300 300 301 302 302 301 301 301 302 302 302 302 302 303 303 303 303 303 303 304 304 305 307 308 308 311 312 312 314 314 313 313 314 315 317 320 320 320 321 321 320 319 318 317 316 317 318 317 316 318 319 319 320 321 320 320 323 326 327 327 327 328 328 329 328 327 328 330 330 329 331 335
297 297 296 296 296 297 297 297 297 297 297 298 298 299 300 300 300 301 301 302 302 302 302 302 303 303 303 304 304 304 304 304 304 304 304 304 305 306 307 309 312 313 312 314 314 312 312 313 314 315 317 319 320 320 320 320 319 320 320 318 317 319 318 318 319 319 320 321 320 319 323 326 325 325 327 327 327 326 326 328 328 327 329 332 333 332 334
297 296 296 296 296 297 296 296 296 297 297 297 298 299 300 300 301 301 301 302 302 302 302 302 302 303 304 304 305 305 305 305 305 305 305 305 305 306 307 309 310 310 311 313 313 312 312 312 313 313 315 317 318 319 319 319 319 320 321 320 320 319 319 319 319 318 320 321 322 322 324 326 325 325 325 326 326 325 325 328 330 328 328 331 333 334 335
296 296 296 296 296 296 296 296 296 296 297 297 298 298 299 300 301 301 302 302 302 301 301 302 302 303 304 304 304 305 304 304 305 305 305 306 306 305 307 307 308 309 310 310 311 311 311 312 312 313 314 316 318 319 320 320 320 320 320 320 321 322 321 321 320 317 318 321 323 325 324 325 325 326 325 326 327 325 325 329 331 328 327 328 330 332 335
295 295 296 296 296 296 296 296 297 297 297 297 297 298 299 300 300 301 302 302 302 302 302 302 303 303 304 303 303 304 304 304 305 304 305 306 306 307 307 307 307 308 309 310 310 311 311 311 312 313 314 315 317 317 319 320 320 320 320 320 321 321 322 322 321 319 319 322 324 324 324 323 324 325 325 326 326 325 325 327 328 327 327 327 326 327 330
295 295 296 296 296 296 296 297 297 298 298 298 298 298 299 299 300 300 301 302 301 301 302 302 302 302 302 302 303 304 305 306 306 306 305 306 307 307 308 308 308 309 309 310 311 311 311 311 313 313 313 314 315 316 319 320 320 321 321 321 321 322 323 322 321 321 321 323 324 324 323 323 324 325 325 325 325 326 326 326 327 327 326 326 325 325 325
295 296 296 296 296 296 296 297 298 298 298 298 298 299 299 300 300 301 301 302 301 301 301 301 301 301 302 303 304 305 305 305 305 306 306 306 307 308 308 308 308 309 310 311 312 312 312 312 313 313 312 313 314 315 318 320 320 320 320 320 320 321 322 322 322 322 322 322 323 324 324 324 324 325 325 325 326 328 328 326 326 326 325 325 326 326 324
296 296 296 296 296 296 297 297 297 297 297 297 298 300 301 301 302 302 302 302 302 301 301 300 300 301 303 304 304 305 306 306 306 306 307 307 308 308 308 309 309 310 310 311 311 312 312 312 312 312 312 313 314 315 316 317 318 319 319 319 319 320 321 321 322 322 323 323 323 324 324 324 324 324 325 325 325 326 326 325 325 324 323 324 326 325 324
296 296 297 297 297 296 296 296 297 297 297 298 299 300 301 302 303 302 302 302 302 301 300 300 300 302 302 303 304 306 307 307 307 307 308 308 308 308 308 309 309 310 311 311 312 312 312 312 312 312 313 313 314 315 316 316 316 317 318 318 318 319 318 319 321 322 322 323 323 323 324 325 325 324 323 324 324 324 324 324 324 323 322 323 323 323 323
296 296 297 297 297 297 296 296 297 297 297 298 299 300 302 303 303 301 300 300 301 301 300 300 300 301 301 303 305 307 308 308 308 308 308 308 308 308 309 309 309 310 311 311 312 312 312 312 313 313 313 314 314 313 315 315 314 316 318 318 318 319 319 319 320 322 322 322 322 323 323 324 325 324 323 323 324 324 324 324 323 324 325 324 322 323 324
296 296 297 297 297 297 297 296 297 297 297 298 299 300 301 302 301 300 299 300 301 301 300 300 301 301 302 304 305 306 308 309 308 308 308 308 309 309 310 310 310 310 311 311 311 312 312 312 313 312 314 316 315 314 313 314 314 316 318 317 318 321 321 320 320 321 322 322 322 323 324 324 324 324 324 324 323 323 323 322 321 322 324 323 322 323 324
295 295 296 297 297 297 296 296 296 297 297 298 298 299 299 300 299 299 300 300 301 301 300 301 301 302 302 304 305 307 308 308 308 308 309 309 310 311 311 311 311 311 311 311 312 312 312 311 311 311 313 315 315 313 313 313 313 315 316 315 315 318 320 320 320 321 322 321 322 323 325 325 325 323 322 322 322 321 321 321 321 321 322 322 322 322 323
295 295 295 296 296 296 296 296 297 297 297 298 299 300 300 299 299 299 299 299 300 301 300 300 301 302 303 304 305 308 308 307 307 308 309 309 310 310 310 310 311 312 312 312 312 312 312 311 311 311 311 312 312 312 312 313 313 313 314 314 315 317 318 319 321 321 321 321 321 322 323 323 323 322 321 321 321 320 321 321 321 322 322 321 321 321 322
295 295 295 296 296 297 297 297 298 299 300 301 302 303 302 301 300 299 299 299 300 301 300 301 301 302 304 304 306 307 307 307 307 308 308 308 309 309 309 309 310 311 312 312 312 312 312 311 311 310 310 311 311 311 312 312 312 313 314 314 314 315 316 317 320 321 322 322 321 322 322 322 322 322 321 321 320 320 320 320 320 321 321 320 320 321 322
295 296 297 297 298 298 300 301 301 301 303 303 303 302 301 300 300 300 300 300 301 301 301 301 301 302 304 304 306 307 307 307 308 308 308 308 308 308 308 308 308 310 311 311 311 312 312 311 310 310 310 310 310 310 311 311 311 312 313 313 314 315 315 315 317 321 322 322 321 321 322 322 322 321 320 320 321 320 319 319 318 318 319 319 319 320 321
297 298 298 299 300 301 303 304 304 303 303 302 301 300 298 298 299 300 301 301 301 301 301 301 301 302 303 304 305 306 306 307 307 307 307 307 307 308 308 307 307 308 309 309 310 311 311 311 311 310 310 310 310 310 310 311 312 312 312 313 314 314 314 316 317 318 320 321 321 321 320 320 320 319 319 319 320 320 319 318 316 316 316 316 317 318 319
298 298 298 300 302 303 304 304 304 302 301 301 300 300 299 299 300 300 301 301 301 301 301 301 301 303 303 304 306 307 306 307 307 306 307 307 307 307 308 307 307 308 308 308 309 310 310 310 310 310 310 311 310 311 312 311 312 312 312 313 315 315 314 317 319 317 318 321 321 320 319 319 319 319 318 318 318 318 318 316 315 315 316 315 316 317 318
299 299 300 302 303 303 303 303 301 300 300 301 300 300 300 300 301 301 302 301 301 301 301 302 302 303 304 305 307 307 306 307 307 307 307 307 307 308 308 307 308 308 307 308 309 309 309 309 310 309 310 310 310 311 312 311 311 313 313 314 317 317 316 318 320 318 317 319 320 319 318 318 318 319 319 318 316 316 315 315 315 316 316 315 315 316 316
301 302 303 303 302 302 302 301 300 300 301 301 301 301 301 301 302 302 303 303 303 303 303 304 305 305 306 306 306 307 307 307 306 306 307 307 307 307 307 307 307 307 307 308 309 308 308 308 308 308 310 312 312 312 312 311 312 313 314 315 317 318 318 319 320 318 317 318 317 316 316 317 317 318 319 318 317 316 316 315 315 316 316 316 316 316 316
302 302 301 301 300 300 300 300 300 301 301 301 301 301 301 301 302 302 303 304 304 304 305 306 306 305 306 306 306 306 306 306 306 306 306 307 307 307 307 307 307 306 307 307 307 308 308 308 308 309 311 313 313 313 313 313 313 313 313 315 317 318 319 319 319 318 318 318 317 316 316 316 316 316 317 318 318 319 318 317 316 316 316 316 316 316 316
300 299 299 299 299 300 300 300 301 301 301 301 301 302 302 302 302 302 302 303 304 304 305 306 305 305 305 305 305 305 305 306 306 306 306 306 307 306 307 307 307 307 307 307 307 308 308 307 308 310 312 313 313 313 313 313 313 313 313 314 315 317 319 319 318 316 316 317 317 316 317 317 316 316 316 317 317 318 318 318 318 317 316 315 316 316 316
298 298 299 299 300 300 300 300 300 301 301 301 301 302 302 301 302 302 303 303 304 304 304 305 304 304 305 305 305 305 305 306 305 305 305 306 306 306 307 307 307 307 308 307 307 307 308 308 310 312 312 312 312 313 313 313 313 313 314 314 314 315 318 318 317 316 316 317 318 317 316 316 317 316 316 316 316 315 315 317 317 317 316 315 316 316 315
299 300 300 300 300 299 300 300 301 302 302 301 302 302 302 302 302 303 303 304 304 304 304 304 304 303 304 304 304 304 304 304 305 305 305 306 306 306 307 308 308 307 308 308 308 307 307 310 312 312 312 311 311 312 312 313 313 313 314 314 314 315 317 317 317 316 316 316 317 317 316 316 316 316 315 315 315 314 314 315 316 316 316 315 315 315 314
300 300 299 299 299 299 300 300 301 302 302 302 302 302 302 303 304 304 304 303 303 304 304 304 303 303 303 304 304 304 304 304 304 305 305 305 306 307 307 307 307 307 308 308 309 308 309 311 312 312 311 311 311 311 312 312 313 313 313 314 315 315 315 316 316 316 315 314 315 315 315 315 315 315 314 315 315 314 314 315 316 315 315 315 315 315 314
299 299 298 299 300 300 300 300 301 302 303 303 302 303 303 303 303 303 303 303 303 303 303 303 303 303 303 303 303 303 304 303 304 304 304 305 306 307 307 307 308 308 308 308 309 309 310 311 312 311 310 309 309 309 310 311 312 312 313 314 314 314 314 314 315 315 315 315 313 313 313 313 313 314 314 314 314 314 314 315 315 315 314 314 315 315 314
299 298 298 299 300 300 299 300 301 301 302 303 303 303 303 303 302 302 302 302 302 302 302 302 302 302 302 303 303 303 303 303 304 304 304 305 306 306 306 307 308 308 308 309 310 309 309 310 311 310 310 309 307 307 308 309 310 311 312 313 314 314 314 314 314 314 315 315 313 312 312 313 313 313 314 314 314 314 314 315 315 314 314 314 314 314 314
298 298 298 299 299 300 300 300 301 301 302 303 303 302 302 302 302 302 302 302 302 302 302 302 302 302 302 302 302 303 303 303 304 304 304 304 305 306 306 307 308 308 308 309 309 309 309 309 308 308 308 307 306 306 306 306 307 308 310 311 313 313 313 314 314 314 314 314 314 313 312 312 313 313 313 313 313 313 313 314 314 314 314 314 314 313 312
297 298 298 298 299 299 300 300 301 301 302 302 302 302 302 301 301 301 302 301 301 301 301 301 301 301 301 301 302 303 303 303 303 303 304 305 306 307 307 308 308 308 308 308 309 309 309 308 307 306 306 306 305 305 305 304 305 306 307 309 311 312 312 313 314 314 314 314 314 314 313 311 311 312 311 311 311 311 311 312 313 314 314 313 313 312 311
297 297 297 298 298 299 300 301 301 301 301 301 302 302 301 301 301 301 301 301 301 301 301 301 301 301 301 302 302 303 303 303 303 304 305 305 306 307 307 307 308 308 308 307 308 307 307 306 305 304 304 303 303 303 303 303 303 303 304 305 308 310 311 311 312 314 314 314 312 312 313 312 311 311 311 310 309 309 310 311 312 312 313 312 311 311 310
297 297 298 298 299 299 300 300 300 300 300 300 300 301 301 300 300 301 301 300 300 300 300 301 301 301 301 302 302 302 302 302 303 303 304 305 305 306 307 307 307 307 307 306 305 305 304 303 302 301 301 301 301 301 301 302 302 302 302 303 305 307 307 307 308 310 312 312 311 311 312 313 312 311 311 310 310 309 309 309 310 311 311 310 310 310 310
297 298 298 298 299 299 300 300 300 300 300 300 300 300 300 300 300 300 300 300 300 300 300 300 301 301 301 302 302 302 302 303 303 303 304 304 304 305 306 306 306 306 305 304 303 303 301 300 300 299 299 299 300 300 300 300 301 301 302 302 301 302 304 304 305 305 307 308 309 309 310 312 312 311 311 311 311 310 310 309 309 310 311 311 311 310 310
Wind_Speed
23 22 23 25 25 27 30 31 31 32 29 23 19 15 7 4 2 5 10 9 6 4 5 5 5 6 8 10 13 13 11 12 14 13 12 9 6 6 6 6 8 8 9 11 11 10 8 7 7 6 7 11 10 8 12 16 15 10 9 10 12 10 4 4 6 7 11 16 15 14 16 15 13 12 12 12 11 12 11 8 7 6 8 10 8 8 7
23 22 23 24 25 27 29 30 31 29 25 23 20 12 5 5 3 4 8 8 6 4 5 5 6 7 9 12 15 14 11 11 12 12 12 8 3 6 6 6 8 7 8 11 13 11 8 4 4 5 6 8 11 14 16 17 14 10 9 8 7 7 6 5 5 4 6 12 12 11 13 13 9 10 13 14 15 17 14 11 9 7 11 15 9 7 8
22 23 23 24 24 27 29 29 31 28 22 22 17 8 5 6 4 3 6 9 7 6 6 6 8 9 11 13 15 15 11 9 11 12 14 12 0 5 5 5 7 5 5 8 13 13 10 6 3 4 6 8 11 14 17 16 13 12 12 9 4 4 6 4 3 4 6 10 10 9 10 10 9 11 17 18 20 20 15 10 8 7 11 15 10 5 4
21 22 23 24 24 27 28 29 32 27 19 22 19 9 7 5 2 1 4 8 7 7 7 7 7 7 8 9 12 14 12 11 14 13 13 11 1 6 3 2 3 3 3 6 10 13 13 10 7 6 5 6 7 12 16 16 15 14 11 6 2 4 5 5 7 9 7 9 11 11 11 11 12 16 19 20 20 19 15 10 8 7 8 9 9 6 3
21 21 22 24 24 26 28 29 33 27 18 21 19 9 6 4 4 4 2 3 5 7 7 7 7 7 6 6 9 14 16 15 13 11 12 9 2 6 4 4 4 0 2 2 7 11 11 7 8 10 7 6 7 11 15 14 15 13 10 7 4 5 7 8 12 13 11 8 9 13 16 15 17 19 20 20 21 21 18 10 6 7 7 7 10 9 3
21 21 21 23 24 26 27 27 32 28 19 20 18 7 3 4 5 5 6 3 6 6 6 7 10 11 9 7 10 14 17 16 13 11 13 11 3 2 4 5 7 5 3 1 4 9 7 1 4 7 7 7 7 11 13 13 15 13 11 11 8 5 7 9 11 12 12 9 8 10 17 16 16 19 20 21 23 22 18 11 9 10 8 7 10 7 4
21 21 21 22 24 26 25 25 30 28 22 21 15 5 4 6 5 4 7 5 8 11 12 13 13 13 10 7 9 12 14 16 15 12 12 12 7 2 4 5 5 8 7 3 3 7 6 4 3 2 3 6 5 9 10 12 16 14 12 12 7 4 6 8 8 9 11 11 11 12 16 17 17 19 21 21 21 19 16 14 16 16 13 12 12 7 3
21 21 21 21 23 24 24 24 26 26 24 22 13 3 5 6 4 5 7 7 9 11 12 11 11 11 7 5 8 12 13 15 17 14 13 14 11 6 7 9 4 7 10 6 5 6 6 7 7 4 5 7 4 7 8 10 14 15 12 9 7 6 4 4 3 5 9 11 12 14 15 17 18 19 21 21 20 19 19 16 14 14 14 15 12 7 3
21 21 21 22 23 23 22 21 24 24 23 20 12 7 9 9 7 7 7 7 7 8 9 9 10 9 6 5 10 13 14 17 18 16 14 13 14 14 15 15 8 5 10 9 10 11 11 12 13 10 9 9 6 3 6 9 11 12 11 7 7 8 3 3 3 5 4 9 14 14 13 15 18 18 19 20 18 17 16 13 10 10 13 14 10 4 4
21 21 21 22 24 23 19 19 21 21 20 17 10 8 11 11 8 7 6 7 7 8 9 10 9 7 7 10 13 14 16 19 18 14 11 13 16 16 14 13 7 2 7 10 14 15 15 15 13 11 11 11 10 10 10 11 11 10 10 7 5 5 3 1 3 4 4 8 12 9 7 11 14 14 17 19 18 17 16 13 12 13 12 9 6 5 6
21 20 19 21 23 22 18 17 19 19 17 15 11 9 11 10 8 7 6 7 8 8 8 8 8 9 12 15 17 16 18 20 18 13 11 13 18 16 12 12 9 5 3 3 11 14 13 13 12 10 10 13 13 13 14 15 14 10 8 7 4 2 3 2 1 2 4 5 4 6 6 9 7 6 13 19 19 19 18 15 15 16 14 10 8 7 7
20 20 19 20 22 21 17 15 16 16 15 14 13 11 11 11 9 7 5 7 9 8 8 9 10 13 16 17 18 17 19 19 17 16 14 14 16 15 13 14 12 10 12 4 9 9 8 8 9 9 9 12 13 15 16 15 15 12 10 8 5 4 1 3 2 2 2 4 5 3 5 7 6 6 10 16 19 20 18 16 16 17 16 14 12 11 8
19 19 19 20 21 20 17 14 14 15 14 14 13 11 11 11 9 6 5 7 9 7 8 12 15 15 16 18 18 18 19 19 17 16 16 14 14 14 12 13 13 13 15 10 3 3 6 4 5 6 8 10 10 14 17 15 13 11 12 10 6 5 2 2 3 3 2 1 0 2 4 9 12 12 10 13 17 17 16 14 14 14 13 12 12 13 9
19 19 19 20 21 20 17 14 13 13 13 14 13 12 12 12 9 6 5 6 8 10 10 11 12 14 17 18 18 17 17 17 15 15 15 14 13 14 13 14 15 14 13 10 5 5 3 2 1 2 5 5 5 10 14 14 11 11 11 10 7 7 5 3 4 3 1 0 1 4 7 10 11 9 6 9 11 10 9 9 10 13 13 13 14 14 13
19 19 20 21 20 18 17 15 13 12 12 13 13 13 13 11 8 7 7 6 9 10 8 6 10 15 17 17 16 14 13 12 12 13 15 13 12 13 14 15 15 13 11 7 3 2 1 3 2 2 4 4 5 7 9 9 8 10 11 9 7 7 5 4 3 2 1 1 2 5 6 6 4 5 9 10 9 5 2 4 7 10 13 14 14 15 14
19 19 20 21 20 18 16 14 12 12 12 12 13 13 13 9 6 8 9 6 7 8 7 12 16 16 14 13 14 13 10 9 10 11 11 12 14 14 15 16 14 13 12 6 2 1 2 2 3 4 4 6 6 5 5 6 6 7 9 7 6 6 5 3 4 4 2 2 3 4 4 3 5 9 13 13 12 8 3 5 6 7 10 13 13 11 10
20 20 20 20 20 18 15 13 12 12 12 13 13 13 14 11 8 10 9 5 6 9 11 16 17 12 9 10 11 10 8 8 10 9 8 12 14 13 15 14 12 14 14 8 2 3 3 3 4 5 4 4 6 6 5 6 6 7 9 8 7 6 3 1 4 5 3 3 4 3 3 3 5 8 12 14 13 9 5 8 5 1 4 7 10 12 12
21 19 18 19 19 16 14 13 13 12 12 13 14 14 15 13 9 9 8 6 7 8 10 14 16 11 9 10 10 10 9 9 9 8 8 10 9 12 15 12 8 12 14 9 4 3 4 4 3 4 5 5 2 3 4 5 6 6 8 8 7 5 3 2 3 5 4 4 4 3 4 5 4 5 10 14 11 6 5 6 2 6 9 7 4 7 10
21 18 17 18 18 15 13 13 13 13 13 13 13 15 15 13 9 8 8 6 6 9 13 18 18 14 12 12 11 9 9 10 9 8 8 7 9 15 15 7 4 9 10 7 6 5 4 4 4 3 5 7 6 5 5 4 5 6 6 7 6 4 3 2 3 4 3 3 4 4 3 4 4 7 12 13 8 4 2 2 3 6 8 8 7 6 6
20 18 17 18 18 15 13 13 13 13 13 13 13 14 16 16 12 11 11 8 7 10 15 16 16 17 16 14 13 11 10 10 8 7 8 7 10 14 11 4 5 8 7 6 7 6 5 6 6 4 4 6 5 6 7 6 5 7 7 7 6 4 4 3 3 3 3 3 4 3 2 0 2 7 9 7 2 1 2 3 5 5 5 6 4 6 9
19 18 18 18 18 16 15 14 14 14 14 13 13 14 17 16 11 10 14 13 8 7 10 13 18 24 23 19 19 18 15 13 11 9 8 8 9 8 7 6 8 7 4 5 6 5 4 5 5 3 3 4 4 4 6 7 8 6 6 8 5 4 4 4 2 2 3 2 2 3 2 0 2 2 2 3 4 6 7 4 4 3 3 4 3 3 7
19 19 19 18 16 15 15 15 15 14 14 14 13 14 16 16 13 10 12 14 12 11 16 24 29 31 31 30 30 28 24 21 19 15 10 8 8 6 7 9 8 4 3 4 4 5 5 4 4 4 3 2 3 4 5 5 4 5 7 7 4 5 5 5 2 1 2 2 4 4 2 1 2 1 3 3 3 7 10 7 5 3 2 3 3 1 2
19 19 18 16 15 15 15 15 15 14 13 13 13 14 16 17 16 14 15 15 14 16 23 29 27 25 27 28 28 29 28 24 22 18 13 9 7 7 8 7 5 4 3 3 3 5 5 4 4 5 4 3 3 5 5 3 2 4 7 9 6 5 7 3 2 2 3 5 9 5 3 3 1 1 2 4 5 7 10 9 8 7 6 3 3 0 0
20 18 16 15 14 14 14 15 15 14 14 13 13 15 18 18 17 16 15 12 9 10 14 15 12 13 16 18 20 20 19 20 21 20 17 12 7 6 7 5 6 5 5 4 2 3 4 4 4 5 6 4 3 3 3 2 3 4 4 7 8 4 2 2 4 5 4 4 6 4 3 3 1 1 2 5 7 6 7 5 8 11 9 4 2 2 3
20 16 14 13 14 14 14 14 14 14 14 13 13 15 17 17 16 15 14 10 6 7 9 9 9 14 18 19 21 20 18 17 18 19 20 18 13 10 10 10 10 9 8 7 5 4 5 5 4 5 6 3 2 2 2 2 4 4 3 5 5 5 7 7 7 9 7 3 2 2 1 3 4 3 2 4 5 4 5 3 3 8 11 6 4 4 5
20 15 13 13 14 14 14 12 12 13 13 13 15 16 17 18 16 15 15 12 8 6 8 9 10 14 17 21 23 23 20 18 18 17 18 20 20 18 16 15 13 10 8 7 6 6 5 5 5 6 6 3 2 3 3 2 5 5 4 4 5 5 6 8 8 8 5 2 5 8 6 5 8 9 8 7 7 8 9 6 2 5 10 11 9 8 8
17 13 13 14 14 14 13 12 13 14 14 15 16 17 18 19 17 15 15 12 7 5 6 7 10 15 21 25 28 27 21 18 17 15 16 18 20 20 18 13 10 9 8 7 6 6 5 5 5 6 6 5 5 5 3 2 3 3 3 4 5 5 5 6 8 7 3 2 7 8 5 2 6 7 7 5 7 7 7 9 6 6 9 11 12 10 8
14 13 15 15 14 14 14 14 15 16 16 17 17 18 20 21 20 18 16 13 8 6 7 8 12 18 21 22 24 24 19 16 16 14 15 16 18 19 17 13 10 8 7 6 6 5 5 6 6 5 5 5 5 5 3 2 2 2 2 3 3 4 5 6 5 4 3 4 4 3 4 4 2 3 5 3 4 4 1 3 6 7 7 9 11 11 9
13 14 15 15 15 16 15 15 16 16 17 16 16 18 20 18 16 16 15 12 9 9 8 9 11 12 13 16 22 23 17 13 13 13 14 15 16 15 14 11 10 9 7 6 6 6 6 7 6 5 6 6 4 4 5 4 4 3 3 4 4 4 6 7 5 4 5 5 3 0 3 4 3 4 4 2 3 2 3 5 6 7 8 9 8 8 9
14 15 15 15 16 16 16 16 15 14 15 14 13 13 10 4 0 3 7 5 5 7 7 7 7 8 9 14 18 18 16 13 13 13 14 14 13 12 12 11 9 8 7 6 6 6 6 6 5 6 8 7 5 5 4 5 6 3 2 4 5 4 4 5 6 6 5 3 2 3 2 2 2 4 2 3 4 3 4 6 6 6 6 7 7 7 8
15 16 16 16 16 16 16 16 15 13 13 12 9 6 4 2 6 5 3 2 6 7 6 6 7 8 9 10 11 14 17 16 13 12 12 12 11 12 13 11 8 7 7 6 6 6 7 6 6 8 8 4 2 4 5 6 7 4 1 2 4 3 3 4 5 7 6 3 3 4 3 2 3 4 1 3 4 4 4 5 6 6 5 4 5 6 6
16 17 17 17 17 17 16 16 15 13 13 12 11 11 10 7 5 2 4 7 7 6 4 5 6 6 5 6 10 16 18 15 11 10 10 10 9 9 10 8 6 6 6 6 5 5 6 6 7 9 6 1 2 3 6 6 5 4 3 4 4 2 2 1 2 4 5 4 3 3 2 2 2 1 1 2 3 4 3 4 4 6 7 6 3 3 4
17 18 19 19 19 18 18 17 16 15 15 17 19 22 22 19 18 16 12 9 7 6 3 3 5 5 4 7 11 13 10 8 8 7 5 6 5 4 5 6 6 5 5 5 5 5 6 6 6 7 6 3 3 4 6 6 7 7 6 6 4 2 3 3 2 2 4 6 5 3 1 1 3 2 2 1 1 2 2 3 3 5 5 3 3 3 5
18 19 20 20 19 18 18 16 15 14 13 14 15 15 15 15 16 17 14 9 6 5 3 2 4 5 6 8 8 6 8 7 6 6 5 3 3 3 5 5 4 4 5 6 5 5 6 6 6 7 6 4 4 5 5 6 9 10 7 4 5 6 3 4 8 6 2 8 7 3 1 1 1 1 2 1 0 0 1 2 2 2 2 1 1 4 6
19 18 17 17 17 16 15 12 9 9 11 11 9 6 5 6 7 8 8 7 4 4 2 3 4 5 7 8 6 6 10 9 7 5 6 6 6 6 6 4 3 4 5 5 5 5 6 6 5 6 6 6 5 5 5 7 9 8 6 4 3 4 6 2 5 8 6 8 8 4 1 1 2 3 3 2 1 1 3 3 2 0 0 1 1 5 4
16 14 14 15 15 13 11 9 9 9 7 5 3 2 0 1 3 5 8 8 7 5 3 3 4 6 7 7 5 6 9 9 7 6 5 5 6 6 5 5 5 5 4 4 5 6 6 5 5 6 6 5 5 5 5 7 7 6 6 6 5 5 7 6 4 7 9 7 5 5 4 4 4 4 3 3 2 2 3 3 1 2 2 2 4 4 2
10 11 15 16 13 9 9 8 9 8 4 0 0 2 4 3 3 6 7 7 8 7 4 4 5 7 7 6 5 6 7 7 6 6 5 5 5 5 4 5 6 5 4 5 6 6 6 5 5 6 6 5 7 8 8 7 6 5 5 6 7 7 7 5 5 1 5 7 2 3 5 5 4 4 3 3 4 4 4 1 3 5 4 5 5 4 3
10 13 16 14 9 6 5 2 4 2 3 3 3 4 4 4 4 5 4 4 5 6 4 4 7 7 6 6 6 7 7 6 6 6 5 4 4 4 4 5 4 4 5 6 4 3 4 5 4 5 7 8 9 8 6 5 5 6 5 6 7 8 7 5 3 2 3 5 3 3 3 3 3 4 4 4 6 6 3 2 4 4 4 6 5 4 5
13 13 11 10 7 3 3 4 5 6 5 4 3 3 3 4 3 3 3 4 4 4 4 5 7 7 6 7 7 6 6 6 6 7 5 4 4 4 5 4 3 3 6 6 2 1 3 5 5 5 7 7 5 3 4 4 4 5 5 5 6 7 6 3 1 3 5 3 3 3 4 3 2 1 3 5 7 6 3 2 1 3 6 7 6 5 5
10 9 6 6 4 6 7 4 6 9 6 3 4 3 3 3 3 3 3 3 4 4 4 5 6 7 7 7 6 5 4 4 5 6 6 5 4 4 5 4 4 4 6 5 2 0 3 5 5 4 4 4 5 7 7 6 5 6 5 5 6 7 5 2 2 3 3 2 2 4 5 3 3 4 2 3 5 6 4 2 2 4 6 5 4 5 6
6 5 5 6 9 11 10 9 7 6 4 3 3 3 3 4 4 3 3 4 5 2 3 4 5 4 4 5 6 6 5 5 4 5 5 5 4 4 5 5 4 4 5 5 3 2 4 6 5 3 4 8 10 11 11 9 8 8 7 6 7 7 5 2 1 1 2 2 2 3 3 2 2 2 1 1 3 5 5 4 4 5 4 4 4 5 6
6 6 8 11 14 14 11 7 4 4 3 2 3 4 4 3 3 4 4 4 4 2 2 2 3 4 4 5 6 5 5 5 4 3 5 5 4 4 5 5 4 4 5 5 4 4 5 6 4 2 5 7 9 10 11 10 10 10 10 9 7 6 4 3 1 1 1 1 1 2 2 2 2 1 2 2 2 3 3 4 4 3 3 3 4 5 6
8 9 10 10 10 8 6 5 3 3 2 2 3 3 4 3 4 5 4 2 2 2 1 1 3 4 4 5 5 5 6 6 4 4 4 5 4 4 4 4 4 4 5 4 4 5 6 4 2 3 5 7 9 10 11 10 11 11 11 10 9 8 6 5 3 2 2 1 1 1 2 3 3 3 3 2 2 2 2 3 3 3 3 3 3 5 6
9 9 8 5 4 3 3 2 2 2 2 3 3 3 4 5 4 4 2 1 1 3 3 4 5 6 6 6 5 4 6 5 3 2 3 4 4 4 4 4 3 4 4 4 5 6 5 2 3 3 5 7 9 11 11 11 11 11 11 11 11 12 11 10 7 5 4 4 2 2 2 2 3 2 1 1 2 2 1 2 3 2 1 0 2 5 5
7 6 4 3 3 2 2 2 2 3 3 4 5 4 5 6 5 4 2 1 2 5 6 5 6 7 7 6 4 4 4 4 2 2 3 4 4 4 4 3 4 4 4 5 6 5 3 3 3 5 7 9 10 12 12 11 11 12 12 12 11 12 12 11 11 9 7 5 2 1 1 1 1 1 1 1 2 2 1 2 2 2 2 1 3 4 3
5 3 2 3 3 3 2 3 3 3 3 4 4 4 5 5 6 5 4 3 4 6 6 6 6 7 7 6 5 4 4 4 4 4 3 4 4 4 3 3 4 4 4 6 5 3 2 3 3 5 9 11 12 12 13 12 11 12 11 11 12 11 10 10 10 9 9 7 4 1 0 0 1 1 1 2 3 3 2 2 2 2 2 1 4 4 3
4 3 3 3 3 3 4 4 4 5 5 4 4 5 5 5 5 5 5 4 5 5 6 6 6 7 6 6 5 5 5 4 4 4 4 3 4 4 3 3 3 4 4 4 3 3 4 5 4 5 9 12 12 12 12 12 13 14 13 11 11 10 10 10 9 8 9 9 6 2 1 1 1 2 2 3 3 3 3 3 1 1 0 3 5 4 4
3 3 3 3 3 3 4 5 5 6 6 5 4 4 4 5 5 5 5 4 4 5 6 6 6 6 6 5 5 6 5 4 4 4 3 3 3 3 3 3 4 3 2 2 2 2 4 6 7 8 10 12 12 12 12 12 13 15 15 14 13 12 12 12 11 10 12 12 9 5 2 1 2 2 2 2 2 3 4 3 2 1 2 4 4 3 3
3 3 3 3 3 4 5 6 6 6 5 5 5 4 4 4 5 5 4 4 4 5 6 6 6 6 5 5 5 5 5 4 4 4 3 3 3 2 2 4 4 3 1 2 2 2 3 5 7 9 10 11 12 12 12 12 13 14 14 15 14 12 11 12 11 10 11 11 11 11 6 1 2 2 2 3 3 3 3 4 3 4 4 4 3 5 7
4 4 4 4 5 6 6 5 5 5 5 5 5 4 3 4 5 3 4 4 5 6 6 6 6 5 4 4 4 5 5 4 4 4 4 5 4 2 2 3 4 3 2 3 4 4 5 6 7 8 10 11 11 12 12 12 13 13 13 14 14 12 12 13 13 11 10 11 13 17 16 7 0 2 2 3 4 4 4 4 5 5 4 3 4 7 8
4 4 4 6 6 6 6 5 5 6 5 5 5 5 4 5 5 4 5 5 5 6 5 5 4 4 4 4 4 4 4 3 3 5 5 4 3 3 3 3 3 4 5 5 5 5 6 6 7 7 9 10 11 11 11 12 12 12 13 14 15 15 14 15 15 14 11 12 15 16 18 13 4 3 3 3 6 7 5 4 4 4 4 4 5 7 8
4 4 4 5 6 6 6 6 5 5 5 5 5 5 5 5 5 5 6 5 5 5 5 5 4 4 4 4 3 4 4 3 4 6 4 2 2 3 3 4 4 4 5 5 5 5 6 6 7 7 8 9 10 11 10 11 11 12 13 15 16 16 15 14 15 16 15 14 15 15 16 13 6 6 6 6 6 6 4 3 5 5 4 3 4 5 6
Wind_Direction
349 348 346 346 346 348 350 353 357 359 359 356 340 323 295 269 324 121 154 173 179 219 270 263 253 250 250 271 289 291 289 286 286 287 281 267 227 197 216 230 239 251 269 283 290 289 284 282 284 270 257 268 267 254 248 235 224 214 204 205 209 217 239 241 253 267 231 211 200 204 221 224 220 225 222 216 221 221 216 218 219 214 227 234 233 238 230
355 351 348 346 346 349 351 352 356 360 3 357 338 320 307 301 307 135 165 185 196 242 279 287 288 285 282 295 304 300 293 288 289 294 291 282 203 185 219 209 212 245 276 285 287 287 286 286 286 265 250 270 273 255 237 222 213 206 196 194 198 208 215 219 241 265 217 205 197 195 214 225 222 219 219 220 224 219 216 223 220 209 226 230 230 235 219
358 355 350 347 348 349 350 352 356 358 1 358 344 314 306 301 271 157 172 194 211 243 271 288 295 301 304 306 305 302 301 302 307 309 305 309 315 167 222 204 198 242 281 288 285 280 278 267 237 241 240 256 264 243 223 215 208 203 197 184 170 227 222 184 195 230 198 191 198 192 198 215 221 215 215 222 227 219 213 225 227 213 224 229 235 246 205
353 353 350 349 348 349 350 352 356 356 357 356 344 308 298 312 282 222 187 194 217 247 258 266 269 283 299 298 299 305 308 311 317 314 309 319 78 153 193 183 185 263 270 287 286 271 270 265 242 248 258 264 251 211 202 207 204 198 197 183 160 265 254 196 200 234 228 194 194 194 194 204 209 211 215 219 226 228 222 220 226 228 230 234 241 245 184
345 347 349 349 348 348 349 352 356 356 352 349 339 298 263 299 315 339 341 215 236 243 236 242 256 269 284 292 301 306 304 306 317 316 316 334 89 164 196 172 151 211 222 258 281 274 280 272 240 251 269 286 259 202 185 194 197 186 178 183 204 251 254 225 219 242 256 238 209 194 196 207 207 206 216 221 225 233 232 226 243 252 242 235 238 233 180
341 344 347 347 348 349 349 353 357 355 347 342 334 302 278 320 317 356 16 302 273 286 287 289 294 291 286 289 292 290 296 309 322 323 324 337 22 163 256 220 191 198 198 182 285 292 309 317 222 242 250 260 238 187 171 181 187 181 185 199 210 241 261 245 237 251 258 263 270 222 202 208 209 205 213 222 225 229 234 247 271 265 247 238 246 241 174
341 344 346 346 347 349 349 353 358 358 351 342 330 308 358 344 312 359 16 325 288 296 297 291 289 287 277 272 281 284 300 317 324 329 329 330 343 6 301 282 218 198 196 188 271 297 318 323 301 302 265 261 217 166 169 184 183 185 205 213 194 197 257 254 250 261 253 248 266 251 219 209 212 213 214 220 226 228 231 243 250 247 240 240 255 271 203
340 341 345 346 346 348 349 352 359 2 359 350 343 16 27 353 328 343 338 313 294 289 288 283 280 285 282 273 293 304 317 324 326 332 333 328 332 333 316 321 317 189 188 192 224 253 279 288 289 301 290 278 236 167 174 187 185 192 211 216 188 189 256 293 284 267 261 256 255 243 224 212 214 219 218 218 223 225 223 226 232 234 234 238 252 285 305
338 339 343 346 347 348 349 351 358 6 6 355 350 15 10 349 348 344 315 304 304 294 293 290 281 293 319 316 313 319 324 325 326 330 330 324 324 331 336 340 350 156 176 201 227 240 251 261 267 273 279 282 281 254 209 194 188 195 209 215 203 207 242 341 287 247 265 280 265 249 237 225 220 221 220 217 219 224 225 221 222 229 232 239 248 255 264
336 337 340 345 348 349 349 351 356 3 8 1 350 356 357 347 348 349 318 297 297 296 303 299 287 309 344 332 321 321 322 325 327 326 323 323 327 334 342 341 342 134 177 211 227 238 243 249 261 273 280 280 286 294 270 228 200 194 210 213 206 224 244 289 266 255 246 252 255 269 281 243 220 213 216 216 218 225 228 218 218 234 242 247 248 219 226
333 334 336 342 348 349 349 350 353 358 3 359 343 334 345 343 334 334 319 296 297 305 311 309 312 331 336 329 326 323 321 322 324 322 319 325 331 336 341 337 331 343 352 224 210 225 243 254 262 265 274 279 276 283 275 242 211 198 211 209 187 204 265 275 277 293 282 272 302 344 298 244 223 210 213 215 217 223 226 218 211 218 227 240 252 235 226
330 331 333 338 343 347 347 345 348 354 356 350 332 323 336 338 323 319 322 306 303 309 312 312 316 318 321 325 327 322 317 315 315 319 319 323 332 337 341 342 340 344 349 338 193 217 265 270 264 257 256 263 265 271 271 243 213 204 209 210 182 145 182 277 263 243 285 355 10 333 259 255 291 288 237 225 222 220 224 228 222 215 215 227 246 248 235
328 329 331 334 337 342 344 340 341 346 348 344 333 323 328 330 318 316 325 304 296 306 314 308 307 311 322 329 325 316 312 310 314 323 324 323 331 338 343 346 346 342 334 322 275 316 321 277 261 269 253 248 260 270 265 246 225 214 207 202 178 133 128 279 272 249 243 56 119 251 295 300 280 266 257 243 230 218 216 223 227 225 219 218 236 250 251
325 327 329 330 331 335 337 334 336 339 340 339 331 318 317 321 320 322 321 303 299 304 299 295 307 323 328 326 318 312 312 317 324 329 326 323 327 334 345 351 349 342 329 323 354 26 352 275 241 256 247 252 270 264 250 236 229 225 217 206 176 143 148 212 248 267 274 16 275 276 296 286 255 244 270 263 241 225 217 217 217 218 217 213 216 225 232
321 324 326 326 328 331 331 329 330 332 334 333 324 312 311 318 321 313 307 307 306 298 292 313 334 332 324 317 316 317 319 327 332 325 321 324 325 333 352 357 348 342 339 338 21 78 303 304 306 238 214 209 218 225 222 217 221 228 227 218 189 172 189 226 254 292 355 17 318 288 284 275 258 310 326 310 299 315 302 250 227 208 213 221 218 212 213
322 323 323 324 324 326 327 325 322 325 331 330 321 312 312 317 311 299 301 306 298 288 300 324 324 317 310 309 315 321 325 331 328 321 322 325 322 333 352 353 343 346 352 353 1 324 310 336 325 289 238 202 201 209 207 201 205 213 217 220 216 215 233 272 279 283 311 323 296 285 289 281 282 311 326 319 309 318 306 241 228 202 213 225 223 218 214
326 323 320 321 323 322 324 323 319 322 327 327 321 312 307 305 298 294 295 293 285 277 282 300 310 312 312 313 317 322 326 319 314 317 319 314 318 338 348 341 342 356 1 1 347 338 4 15 339 312 282 225 201 194 199 203 200 197 198 206 219 223 223 275 281 278 286 288 282 271 259 265 288 315 324 314 302 293 243 216 214 315 292 248 225 219 215
329 324 319 320 323 322 323 327 326 321 319 320 318 307 299 298 294 283 277 285 290 275 278 302 315 314 305 305 306 307 311 309 309 316 308 300 323 349 340 332 352 5 3 4 0 5 26 15 342 326 317 307 258 198 206 204 199 199 198 200 215 228 220 209 264 277 276 275 290 287 260 272 307 321 302 291 284 265 226 207 238 334 330 320 288 247 225
328 325 318 317 320 320 320 324 325 319 315 316 314 305 298 299 294 272 266 280 282 274 289 307 307 296 293 300 298 298 309 310 306 308 304 307 343 344 330 325 7 358 358 5 1 9 22 359 343 330 323 342 357 329 289 233 202 207 209 211 218 219 216 224 246 265 278 272 278 286 271 274 315 320 295 276 251 217 222 265 302 312 318 328 345 343 302
324 323 316 313 316 316 315 318 317 313 312 315 313 304 298 297 291 268 256 263 280 283 287 289 289 293 303 304 295 293 303 303 300 304 303 309 333 336 330 339 360 350 0 8 2 12 13 350 351 350 332 351 354 321 317 310 262 224 206 220 228 200 201 231 229 238 264 263 264 292 307 267 1 340 314 298 298 352 300 291 296 310 326 329 347 11 346
318 317 313 312 313 312 310 312 312 308 307 313 314 304 297 297 295 268 252 255 268 282 282 287 296 301 299 291 285 283 280 278 282 295 305 305 314 325 325 321 328 344 9 360 352 8 4 342 343 339 323 332 320 313 336 321 284 255 232 234 220 172 201 243 226 215 253 259 248 270 277 206 80 55 285 298 335 314 296 297 314 326 347 341 354 35 343
314 312 310 311 311 310 307 308 310 305 302 310 315 303 294 296 301 294 278 268 259 257 272 285 291 289 282 276 272 266 261 262 268 275 284 296 302 301 292 297 312 348 22 355 334 342 352 342 325 320 318 310 305 312 316 295 290 325 315 278 226 177 210 254 276 213 219 252 249 235 194 101 88 169 235 265 308 307 313 331 340 341 10 345 334 51 317
312 309 309 308 308 309 306 306 309 306 301 309 313 303 296 298 300 302 299 286 272 270 276 281 283 279 273 272 269 261 252 249 255 260 262 271 289 292 282 295 330 347 349 12 355 328 331 327 313 318 314 296 309 322 317 303 310 328 316 305 287 223 207 240 301 227 208 250 258 241 135 117 148 222 314 350 9 343 331 336 340 349 7 348 311 98 152
311 308 307 307 307 307 306 305 306 304 299 301 303 298 295 294 293 295 295 287 284 294 291 283 280 278 278 286 292 284 264 246 242 243 241 243 266 284 279 309 355 337 323 356 9 298 304 306 295 298 302 310 336 333 312 306 308 297 296 305 302 273 240 279 255 231 229 255 260 246 153 140 140 66 18 32 35 352 321 342 349 336 330 314 306 54 70
311 307 306 308 307 306 306 306 307 307 303 300 302 301 295 290 290 294 293 287 289 301 300 294 283 279 285 297 302 298 289 275 261 245 230 225 229 248 272 298 318 313 309 318 308 277 287 296 290 296 305 324 11 328 285 283 305 312 313 307 312 330 335 315 261 244 249 246 268 288 162 112 68 36 5 42 53 348 318 12 12 312 312 330 17 48 57
310 304 304 308 308 306 305 305 309 312 309 305 303 298 290 286 288 289 288 291 291 276 275 285 287 293 307 313 304 295 291 285 275 261 245 233 227 234 256 279 292 294 295 297 290 280 281 281 281 295 302 303 311 316 313 293 293 297 301 301 296 297 308 307 292 282 275 297 351 2 25 35 28 21 359 4 37 17 338 327 298 311 332 349 9 32 46
307 302 304 305 306 306 305 306 309 308 306 304 301 293 286 284 283 277 273 278 286 286 281 281 293 310 315 307 297 293 288 274 263 256 251 245 236 235 244 256 269 280 286 286 282 276 271 268 269 279 289 292 296 299 283 241 265 283 292 302 295 284 298 320 319 319 340 359 352 14 45 359 355 2 332 338 55 47 329 305 318 353 353 351 356 8 28
303 302 304 303 303 303 303 307 310 308 307 305 301 293 286 278 272 265 258 250 249 273 293 293 297 305 307 300 297 299 293 276 264 253 248 250 246 240 240 245 253 265 274 280 284 283 276 277 279 283 294 303 305 305 294 249 245 271 284 291 294 302 319 329 324 318 312 306 331 54 136 198 249 265 264 276 87 102 206 320 355 358 356 359 360 357 1
300 302 303 302 302 300 301 304 306 306 309 309 306 299 289 275 263 253 243 238 251 273 291 299 294 294 302 308 308 306 297 279 268 260 255 257 253 246 244 243 244 250 259 267 277 279 273 275 280 283 294 304 309 311 307 290 279 280 271 270 276 292 304 306 300 283 277 284 308 69 178 191 213 239 253 346 35 61 86 62 34 19 18 18 14 7 5
299 302 303 303 301 299 301 302 302 304 307 308 308 301 287 275 250 216 213 227 282 293 294 299 294 294 305 302 295 293 292 287 278 267 262 260 256 253 253 249 242 241 244 250 260 270 273 277 277 274 280 287 286 286 296 299 298 291 233 252 276 292 305 314 313 298 282 277 307 292 248 168 196 242 258 37 27 22 42 40 37 39 33 28 29 21 15
297 300 301 303 301 300 301 299 300 303 301 297 299 295 287 35 58 69 82 9 318 298 288 287 286 295 297 281 272 283 293 293 286 275 267 264 262 257 253 252 247 237 236 245 253 259 265 272 275 277 282 291 294 290 292 292 295 305 329 302 300 311 337 344 326 302 293 298 308 293 273 177 192 220 210 52 45 46 35 18 21 23 11 24 54 41 17
294 296 300 301 299 299 300 298 296 294 285 273 262 259 271 289 294 302 359 351 318 290 289 294 293 297 298 288 295 301 297 287 284 279 259 244 248 256 254 255 258 248 242 250 256 258 262 262 260 268 270 185 135 276 279 276 288 310 305 278 264 235 221 264 275 271 278 291 298 281 232 155 118 92 48 62 74 68 38 10 23 31 14 355 10 56 40
290 292 296 298 298 298 298 296 292 286 277 268 260 256 258 260 260 266 285 306 298 282 281 293 291 289 290 294 301 308 305 290 288 291 259 218 212 243 254 253 259 255 243 240 244 255 267 267 266 272 270 222 203 259 274 282 296 299 288 283 296 292 223 186 111 22 308 296 297 293 243 93 73 39 335 339 99 91 50 7 10 46 45 347 315 38 55
290 292 297 299 299 299 299 297 294 284 272 264 262 260 254 249 253 261 264 265 274 278 265 250 272 282 290 290 296 335 357 335 311 315 317 290 261 269 264 253 243 231 227 234 242 250 262 268 272 278 277 260 246 253 265 278 287 293 297 314 342 336 290 148 112 101 258 273 279 283 323 24 41 262 274 292 339 302 315 298 305 19 52 284 334 45 44
294 298 302 302 301 301 300 294 280 264 257 252 248 244 230 228 242 245 229 218 240 270 253 235 259 282 301 300 304 348 353 331 306 308 317 310 297 285 277 269 249 220 215 228 242 251 261 268 272 274 275 270 255 248 260 274 282 297 311 316 330 320 297 284 112 124 175 252 282 307 25 339 296 287 285 279 264 323 320 300 271 127 315 286 71 72 58
302 306 304 301 300 299 291 265 232 229 247 251 221 198 315 279 240 216 207 213 232 255 281 283 265 272 292 299 306 331 332 317 311 320 318 307 296 283 271 269 262 246 233 236 246 255 260 263 268 270 270 270 272 278 294 296 294 309 332 339 337 309 298 316 41 118 158 198 266 321 349 335 321 332 337 335 356 2 324 308 10 89 74 26 49 68 74
304 302 301 300 293 274 258 232 202 203 228 251 94 292 296 282 232 216 214 222 227 227 243 278 266 264 279 287 295 313 314 312 319 322 313 305 306 306 300 287 276 269 264 254 248 253 256 251 258 271 273 272 277 284 294 304 314 336 351 345 331 313 315 347 12 54 149 151 169 313 322 319 326 347 357 352 342 314 275 273 52 51 54 50 41 25 20
294 296 298 292 277 262 264 207 142 161 281 299 314 295 256 208 213 226 216 210 213 206 212 251 259 258 264 267 273 289 303 314 318 311 309 323 330 321 302 283 275 280 279 269 259 264 262 245 242 261 268 265 267 276 299 332 355 1 352 341 335 327 330 347 346 344 67 100 143 217 244 261 300 342 353 343 330 316 305 57 59 50 58 57 43 23 21
291 294 286 263 254 302 22 68 55 6 322 261 242 260 224 198 227 240 198 188 211 208 205 233 246 246 251 263 274 283 290 297 301 301 311 333 331 312 300 300 310 305 285 279 290 334 276 263 251 251 260 264 271 331 12 14 10 0 350 350 344 322 308 312 9 76 83 105 176 159 138 171 193 59 3 326 325 332 340 354 8 48 58 47 27 18 24
288 284 270 260 301 3 18 14 352 340 319 232 208 236 242 225 236 233 199 208 225 206 196 227 243 234 232 254 284 302 299 298 305 311 316 318 310 301 302 309 321 308 288 284 296 306 280 283 275 268 291 336 6 9 359 353 359 0 358 360 346 323 313 349 75 94 97 122 155 119 110 129 139 126 139 296 322 336 329 319 17 55 60 53 29 17 14
315 303 301 314 324 326 323 316 310 296 270 240 229 239 240 236 237 234 233 253 262 226 183 227 265 258 234 256 287 301 305 312 318 310 301 295 287 284 288 292 295 286 278 286 303 307 289 281 273 287 7 17 13 3 355 354 356 350 349 1 359 340 336 5 77 165 160 133 106 90 83 77 87 102 155 299 336 336 336 358 32 46 48 42 30 20 13
301 294 292 300 302 295 285 277 259 235 235 250 251 247 248 248 247 241 235 253 284 292 173 211 291 312 309 297 294 295 305 315 312 291 287 290 289 287 291 292 287 273 273 288 305 296 276 272 274 331 14 9 3 1 0 355 346 342 345 354 355 342 332 336 322 247 213 169 104 51 16 6 7 319 282 276 273 287 336 23 43 52 45 28 16 19 22
278 270 268 278 284 274 257 244 224 208 218 225 228 249 258 240 233 246 249 251 284 285 254 281 317 314 303 298 299 300 301 300 293 284 288 292 297 302 297 284 275 280 295 309 300 276 272 286 338 1 356 357 1 2 357 346 341 345 348 345 340 340 340 330 309 290 287 294 290 305 325 330 318 289 281 292 292 298 359 43 61 65 46 17 18 35 32
284 261 247 252 260 249 245 240 191 178 211 222 215 235 254 249 248 266 286 350 333 293 291 313 320 312 310 315 314 303 296 294 289 282 282 283 288 294 284 272 273 289 305 307 284 274 286 2 41 359 341 353 1 358 352 347 345 347 348 346 350 357 354 340 322 308 300 296 286 275 284 292 282 274 302 4 338 318 348 62 88 95 103 336 54 53 36
278 253 235 247 258 233 209 202 188 192 223 231 223 230 252 265 282 306 1 44 314 300 306 318 315 306 304 306 299 289 293 297 285 271 279 289 291 282 269 273 290 296 291 280 270 274 314 11 8 345 353 6 5 356 353 352 349 347 345 347 354 0 357 346 338 330 317 307 303 280 266 266 268 305 339 348 324 310 324 124 139 185 222 185 88 72 37
266 266 256 257 257 242 230 236 233 225 229 234 238 254 271 286 306 329 349 346 316 310 317 321 314 304 301 301 294 285 286 283 277 277 286 291 288 281 278 290 294 281 270 270 270 288 2 5 338 339 358 9 8 358 353 352 350 349 348 346 348 350 346 338 335 325 306 293 291 303 321 4 47 25 13 22 18 7 20 100 141 204 251 95 98 92 40
258 258 248 250 257 245 234 236 242 247 259 272 281 292 305 319 324 319 316 321 324 322 317 312 305 298 295 292 285 278 276 274 277 286 291 284 280 284 288 285 271 261 268 284 309 2 5 350 340 348 359 5 5 360 355 352 350 349 347 343 341 342 338 328 323 319 308 301 299 313 16 25 36 47 49 48 43 39 47 65 103 215 331 71 88 81 34
278 260 233 235 251 244 239 250 260 259 264 280 291 293 302 313 310 304 314 333 335 321 312 311 307 302 296 290 285 285 284 275 268 271 271 265 269 277 276 267 260 260 287 350 42 38 343 336 346 357 2 4 3 358 356 354 348 346 346 344 340 341 341 336 337 351 356 346 331 318 325 40 49 49 56 63 69 78 79 72 46 39 74 87 96 73 16
272 274 252 246 262 266 262 270 280 280 281 291 294 288 287 292 295 310 338 344 324 313 314 310 299 291 293 296 295 290 283 273 271 273 267 260 258 259 271 280 277 272 356 41 42 19 340 346 357 1 2 4 0 355 355 353 346 343 346 345 342 345 350 345 344 2 18 7 340 318 311 325 120 104 84 86 70 57 79 97 97 89 91 101 93 58 35
249 258 252 247 261 276 276 270 271 280 289 292 290 293 301 297 298 339 27 11 327 313 308 293 277 273 278 287 290 287 285 288 292 287 276 272 271 268 283 300 305 322 11 25 18 6 2 6 9 4 0 0 357 352 351 350 348 347 346 343 343 351 360 359 360 11 30 31 7 341 326 316 85 91 80 108 97 60 46 70 93 103 105 90 66 60 54
236 236 241 241 247 266 285 287 282 286 295 299 305 322 330 311 305 349 23 7 324 303 298 296 297 296 286 277 277 284 295 310 303 285 279 285 298 302 313 333 342 349 358 6 11 11 11 14 13 4 355 352 352 351 349 347 348 354 354 348 347 352 358 3 8 12 22 42 39 5 332 317 335 50 35 56 78 72 57 47 61 74 69 54 59 68 68
237 242 259 261 254 260 275 282 282 286 295 300 305 317 322 311 310 334 353 339 307 295 303 312 313 302 292 291 297 302 307 305 292 286 294 338 10 349 346 357 358 351 351 355 2 9 13 12 7 1 353 347 345 347 348 346 347 356 2 359 356 356 359 3 8 10 13 30 40 19 345 332 356 44 37 30 49 67 68 47 49 62 66 55 66 80 85